2023/03/08 00:00:00,44.2, 1.9
2023/03/08 00:10:00,44.2, 1.7
2023/03/08 00:20:00,44.2, 1.7
2023/03/08 00:30:00,44.2, 2.1
2023/03/08 00:40:00,44.2, 1.8
2023/03/08 00:50:00,44.2, 1.7
2023/03/08 01:00:00,44.2, 1.7
2023/03/08 01:10:00,44.2, 1.8
2023/03/08 01:20:00,44.2, 1.9
2023/03/08 01:30:00,44.2, 1.7
2023/03/08 01:40:00,44.2, 1.8
2023/03/08 01:50:00,44.2, 1.6
2023/03/08 02:00:00,44.2, 1.9
2023/03/08 02:10:00,44.2, 1.9
2023/03/08 02:20:00,44.1, 1.7
2023/03/08 02:30:00,44.1, 1.7
2023/03/08 02:40:00,44.1, 2.0
2023/03/08 02:50:00,44.1, 1.8
2023/03/08 03:00:00,44.1, 1.7
2023/03/08 03:10:00,44.2, 1.9
2023/03/08 03:20:00,44.2, 1.9
2023/03/08 03:30:00,44.2, 1.7
2023/03/08 03:40:00,44.2, 1.8
2023/03/08 03:50:00,44.2, 1.7
2023/03/08 04:00:00,44.1, 1.7
2023/03/08 04:10:00,44.1, 1.7
2023/03/08 04:20:00,44.1, 1.7
2023/03/08 04:30:00,44.1, 1.7
2023/03/08 04:40:00,44.1, 1.6
2023/03/08 04:50:00,44.1, 1.6
2023/03/08 05:00:00,44.1, 1.7
2023/03/08 05:10:00,44.1, 2.1
2023/03/08 05:20:00,44.1, 1.4
2023/03/08 05:30:00,44.2, 1.0
2023/03/08 05:40:00,44.2, 1.8
2023/03/08 05:50:00,44.1, 1.5
2023/03/08 06:00:00,44.1, 1.7
2023/03/08 06:10:00,44.1, 1.5
2023/03/08 06:20:00,44.1, 1.2
2023/03/08 06:30:00,44.1, 1.6
2023/03/08 06:40:00,44.1, 1.6
2023/03/08 06:50:00,44.1, 1.8
2023/03/08 07:00:00,44.1, 2.0
2023/03/08 07:10:00,44.1, 2.4
2023/03/08 07:20:00,44.1, 2.8
2023/03/08 07:30:00,44.1, 3.2
2023/03/08 07:40:00,44.0, 3.8
2023/03/08 07:50:00,44.1, 5.2
2023/03/08 08:00:00,44.1, 6.5
2023/03/08 08:10:00,44.2, 7.6
2023/03/08 08:20:00,44.4, 8.2
2023/03/08 08:30:00,44.3, 8.7
2023/03/08 08:40:00,44.2, 9.7
2023/03/08 08:50:00,44.0, 9.3
2023/03/08 09:00:00,43.6,10.2
2023/03/08 09:10:00,43.6,11.6
2023/03/08 09:20:00,43.5,12.3
2023/03/08 09:30:00,43.4,12.9
2023/03/08 09:40:00,43.4,13.4
2023/03/08 09:50:00,43.5,14.4
2023/03/08 10:00:00,43.5,15.5
2023/03/08 10:10:00,43.6,16.2
2023/03/08 10:20:00,43.5,16.7
2023/03/08 10:30:00,43.3,16.2
2023/03/08 10:40:00,43.2,16.9
2023/03/08 10:50:00,42.8,17.6
2023/03/08 11:00:00,42.6,18.9
2023/03/08 11:10:00,42.6,18.4
2023/03/08 11:20:00,42.6,18.9
2023/03/08 11:30:00,42.6,19.3
2023/03/08 11:40:00,42.5,20.2
2023/03/08 11:50:00,42.3,21.2
2023/03/08 12:00:00,42.1,20.5
2023/03/08 12:10:00,41.9,22.5
2023/03/08 12:20:00,41.7,20.3
2023/03/08 12:30:00,41.3,22.9
2023/03/08 12:40:00,41.3,22.0
2023/03/08 12:50:00,41.3,22.1
2023/03/08 13:00:00,41.0,21.2
2023/03/08 13:10:00,40.9,21.8
2023/03/08 13:20:00,40.8,21.8
2023/03/08 13:30:00,40.6,21.2
2023/03/08 13:40:00,40.4,21.6
2023/03/08 13:50:00,40.4,25.1
2023/03/08 14:00:00,40.1,25.4
2023/03/08 14:10:00,40.0,23.6
2023/03/08 14:20:00,39.9,23.6
2023/03/08 14:30:00,39.6,23.4
2023/03/08 14:40:00,39.0,25.0
2023/03/08 14:50:00,38.4,23.8
2023/03/08 15:00:00,38.2,24.2
2023/03/08 15:10:00,38.0,24.3
2023/03/08 15:20:00,37.7,22.9
2023/03/08 15:30:00,37.7,22.9
2023/03/08 15:40:00,37.4,23.6
2023/03/08 15:50:00,37.4,21.4
2023/03/08 16:00:00,37.2,20.9
2023/03/08 16:10:00,37.2,19.5
2023/03/08 16:20:00,37.2,17.3
2023/03/08 16:30:00,37.4,14.5
2023/03/08 16:40:00,37.2,12.8
2023/03/08 16:50:00,37.3,11.6
2023/03/08 17:00:00,37.3,11.0
2023/03/08 17:10:00,37.2,10.8
2023/03/08 17:20:00,37.3, 9.9
2023/03/08 17:30:00,37.4, 9.1
2023/03/08 17:40:00,37.4, 8.5
2023/03/08 17:50:00,37.4, 8.1
2023/03/08 18:00:00,37.4, 7.0
2023/03/08 18:10:00,37.3, 6.4
2023/03/08 18:20:00,37.3, 6.1
2023/03/08 18:30:00,37.3, 5.9
2023/03/08 18:40:00,37.2, 5.6
2023/03/08 18:50:00,37.2, 5.4
2023/03/08 19:00:00,37.2, 5.2
2023/03/08 19:10:00,37.2, 4.9
2023/03/08 19:20:00,37.2, 5.0
2023/03/08 19:30:00,37.3, 4.7
2023/03/08 19:40:00,37.2, 4.3
2023/03/08 19:50:00,37.2, 4.4
2023/03/08 20:00:00,37.2, 4.2
2023/03/08 20:10:00,37.2, 4.3
2023/03/08 20:20:00,37.2, 3.8
2023/03/08 20:30:00,37.2, 3.8
2023/03/08 20:40:00,37.1, 3.8
2023/03/08 20:50:00,37.2, 3.6
2023/03/08 21:00:00,37.2, 3.4
2023/03/08 21:10:00,37.2, 3.3
2023/03/08 21:20:00,37.2, 3.6
2023/03/08 21:30:00,37.2, 3.3
2023/03/08 21:40:00,37.2, 3.2
2023/03/08 21:50:00,37.2, 3.2
2023/03/08 22:00:00,37.2, 2.8
2023/03/08 22:10:00,37.2, 2.7
2023/03/08 22:20:00,37.2, 2.7
2023/03/08 22:30:00,37.2, 2.7
2023/03/08 22:40:00,37.2, 2.5
2023/03/08 22:50:00,37.2, 2.6
2023/03/08 23:00:00,37.2, 2.4
2023/03/08 23:10:00,37.2, 2.3
2023/03/08 23:20:00,37.2, 2.3
2023/03/08 23:30:00,37.2, 2.1
2023/03/08 23:40:00,37.2, 2.2
2023/03/08 23:50:00,37.2, 2.1
